• In Uzbekistan
  • List of Countries
  • For 7 days
  • Water Temperature
  • Satellite Maps
  • Weather Map
  • Weather Widgets
  • user-avatar
    Login

    Hourly Weather Gori

    Today, 23 October, Tuesday

    Time Temperature Precipitation Wind Pressure Humidity
    00:00 +12°C° 0 mm 2 mps 701 mmHg 89%
    01:00 +12°C° 0 mm 2 mps 701 mmHg 88%
    02:00 +12°C° 0 mm 2 mps 701 mmHg 88%
    03:00 +10°C° 0 mm 2 mps 701 mmHg 87%
    04:00 +10°C° 0 mm 2 mps 701 mmHg 86%
    05:00 +10°C° 0 mm 2 mps 701 mmHg 85%
    06:00 +10°C° 0 mm 2 mps 701 mmHg 84%
    07:00 +13°C° 0 mm 2 mps 701 mmHg 77%
    08:00 +15°C° 0 mm 2 mps 701 mmHg 71%
    09:00 +16°C° 0 mm 2 mps 701 mmHg 64%
    10:00 +17°C° 0 mm 2 mps 701 mmHg 59%
    11:00 +19°C° 0 mm 2 mps 701 mmHg 53%
    12:00 +20°C° 0 mm 3 mps 701 mmHg 48%
    13:00 +20°C° 0 mm 3 mps 701 mmHg 46%
    14:00 +20°C° 0 mm 3 mps 700 mmHg 44%
    15:00 +21°C° 0 mm 3 mps 700 mmHg 42%
    16:00 +18°C° 0 mm 2 mps 700 mmHg 50%
    17:00 +16°C° 0 mm 2 mps 700 mmHg 59%
    18:00 +14°C° 0 mm 1 mps 699 mmHg 67%
    19:00 +14°C° 0 mm 1 mps 699 mmHg 68%
    20:00 +13°C° 0 mm 1 mps 699 mmHg 69%
    21:00 +13°C° 0 mm 1 mps 699 mmHg 70%
    22:00 +13°C° 0 mm 1 mps 699 mmHg 70%
    23:00 +12°C° 0 mm 1 mps 699 mmHg 70%

    Tomorrow, 24 October, Wednesday

    Time Temperature Precipitation Wind Pressure Humidity
    00:00 +12°C° 0 mm 1 mps 699 mmHg 70%
    01:00 +12°C° 0 mm 1 mps 698 mmHg 70%
    02:00 +12°C° 0 mm 1 mps 698 mmHg 71%
    03:00 +12°C° 0 mm 1 mps 698 mmHg 71%
    04:00 +11°C° 0 mm 1 mps 698 mmHg 72%
    05:00 +11°C° 0 mm 1 mps 697 mmHg 73%
    06:00 +11°C° 0 mm 1 mps 697 mmHg 73%
    07:00 +13°C° 0 mm 2 mps 697 mmHg 67%
    08:00 +15°C° 0 mm 2 mps 697 mmHg 61%
    09:00 +16°C° 0 mm 2 mps 697 mmHg 55%
    10:00 +18°C° 0 mm 3 mps 697 mmHg 52%
    11:00 +19°C° 0 mm 3 mps 696 mmHg 49%
    12:00 +20°C° 0 mm 3 mps 696 mmHg 45%
    13:00 +20°C° 0.1 mm 3 mps 695 mmHg 47%
    14:00 +20°C° 0.1 mm 3 mps 695 mmHg 48%
    15:00 +20°C° 0.1 mm 3 mps 694 mmHg 49%
    16:00 +18°C° 0.2 mm 2 mps 694 mmHg 57%
    17:00 +17°C° 0.2 mm 2 mps 693 mmHg 65%
    18:00 +15°C° 0.2 mm 1 mps 693 mmHg 74%
    19:00 +15°C° 0.1 mm 2 mps 693 mmHg 75%
    20:00 +14°C° 0.1 mm 2 mps 693 mmHg 77%
    21:00 +14°C° 0.1 mm 2 mps 692 mmHg 79%
    22:00 +14°C° 0.2 mm 2 mps 692 mmHg 78%
    23:00 +13°C° 0.2 mm 2 mps 691 mmHg 78%

    Day after tomorrow, 25 October, Thursday

    Time Temperature Precipitation Wind Pressure Humidity
    00:00 +13°C° 0.2 mm 2 mps 691 mmHg 78%
    01:00 +13°C° 0.6 mm 2 mps 691 mmHg 80%
    02:00 +13°C° 0.6 mm 2 mps 691 mmHg 82%
    03:00 +13°C° 0.6 mm 2 mps 690 mmHg 83%
    04:00 +13°C° 0.3 mm 2 mps 690 mmHg 83%
    05:00 +13°C° 0.3 mm 2 mps 690 mmHg 83%
    06:00 +12°C° 0.3 mm 2 mps 690 mmHg 84%
    07:00 +13°C° 0.2 mm 2 mps 690 mmHg 79%
    08:00 +13°C° 0.2 mm 3 mps 690 mmHg 75%
    09:00 +14°C° 0.2 mm 3 mps 689 mmHg 71%
    10:00 +15°C° 0.8 mm 4 mps 689 mmHg 70%
    11:00 +15°C° 0.8 mm 4 mps 688 mmHg 68%
    12:00 +17°C° 0.8 mm 4 mps 688 mmHg 67%
    13:00 +17°C° 0.8 mm 4 mps 688 mmHg 67%
    14:00 +17°C° 0.8 mm 4 mps 687 mmHg 67%
    15:00 +17°C° 0.8 mm 4 mps 687 mmHg 67%
    16:00 +15°C° 3.5 mm 4 mps 688 mmHg 75%
    17:00 +13°C° 3.5 mm 4 mps 689 mmHg 83%
    18:00 +11°C° 3.5 mm 4 mps 689 mmHg 91%
    19:00 +11°C° 0.7 mm 4 mps 690 mmHg 90%
    20:00 +10°C° 0.7 mm 3 mps 690 mmHg 89%
    21:00 +10°C° 0.7 mm 3 mps 691 mmHg 88%
    22:00 +9°C° 0.6 mm 3 mps 691 mmHg 87%
    23:00 +9°C° 0.6 mm 3 mps 691 mmHg 87%

    26 October, Friday

    Time Temperature Precipitation Wind Pressure Humidity
    00:00 +8°C° 0.6 mm 3 mps 690 mmHg 87%
    01:00 +8°C° 1.4 mm 3 mps 691 mmHg 87%
    02:00 +8°C° 1.4 mm 3 mps 691 mmHg 87%
    03:00 +7°C° 1.4 mm 3 mps 691 mmHg 87%
    04:00 +7°C° 0.6 mm 3 mps 692 mmHg 86%
    05:00 +7°C° 0.6 mm 3 mps 692 mmHg 86%
    06:00 +7°C° 0.6 mm 3 mps 693 mmHg 86%
    07:00 +7°C° 0.2 mm 3 mps 694 mmHg 84%
    08:00 +8°C° 0.2 mm 3 mps 694 mmHg 82%
    09:00 +8°C° 0.2 mm 3 mps 695 mmHg 80%
    10:00 +8°C° 0 mm 3 mps 695 mmHg 77%
    11:00 +9°C° 0 mm 3 mps 695 mmHg 75%
    12:00 +9°C° 0 mm 3 mps 695 mmHg 72%
    13:00 +8°C° 0 mm 4 mps 695 mmHg 71%
    14:00 +8°C° 0 mm 4 mps 695 mmHg 70%
    15:00 +8°C° 0 mm 4 mps 695 mmHg 70%
    16:00 +7°C° 0 mm 4 mps 696 mmHg 74%
    17:00 +7°C° 0 mm 3 mps 696 mmHg 78%
    18:00 +5°C° 0 mm 3 mps 697 mmHg 82%
    19:00 +6°C° 0.1 mm 2 mps 698 mmHg 82%
    20:00 +5°C° 0.1 mm 2 mps 698 mmHg 83%
    21:00 +5°C° 0.1 mm 2 mps 699 mmHg 83%
    22:00 +5°C° 0.1 mm 2 mps 700 mmHg 81%
    23:00 +5°C° 0.1 mm 2 mps 700 mmHg 79%

    27 October, Saturday

    Time Temperature Precipitation Wind Pressure Humidity
    00:00 +4°C° 0.1 mm 2 mps 701 mmHg 77%
    01:00 +5°C° 0.2 mm 2 mps 701 mmHg 77%
    02:00 +5°C° 0.2 mm 2 mps 702 mmHg 78%
    03:00 +5°C° 0.2 mm 2 mps 703 mmHg 78%
    04:00 +5°C° 0.1 mm 2 mps 704 mmHg 80%
    05:00 +5°C° 0.1 mm 2 mps 704 mmHg 81%
    06:00 +5°C° 0.1 mm 2 mps 705 mmHg 83%
    07:00 +5°C° 0 mm 3 mps 705 mmHg 79%
    08:00 +7°C° 0 mm 3 mps 706 mmHg 75%
    09:00 +8°C° 0 mm 3 mps 706 mmHg 71%
    10:00 +8°C° 0 mm 4 mps 706 mmHg 69%
    11:00 +10°C° 0 mm 4 mps 706 mmHg 67%
    12:00 +11°C° 0 mm 4 mps 706 mmHg 64%
    13:00 +11°C° 0 mm 4 mps 706 mmHg 64%
    14:00 +11°C° 0 mm 3 mps 706 mmHg 63%
    15:00 +11°C° 0 mm 3 mps 706 mmHg 62%
    16:00 +10°C° 0 mm 2 mps 706 mmHg 67%
    17:00 +8°C° 0 mm 2 mps 707 mmHg 72%
    18:00 +8°C° 0 mm 1 mps 707 mmHg 77%
    19:00 +8°C° 0 mm 1 mps 707 mmHg 75%
    20:00 +8°C° 0 mm 1 mps 708 mmHg 72%
    21:00 +7°C° 0 mm 1 mps 708 mmHg 70%
    22:00 +7°C° 0 mm 1 mps 708 mmHg 69%
    23:00 +7°C° 0 mm 1 mps 708 mmHg 68%

    28 October, Sunday

    Time Temperature Precipitation Wind Pressure Humidity
    00:00 +6°C° 0 mm 2 mps 708 mmHg 67%
    01:00 +6°C° 0 mm 2 mps 708 mmHg 67%
    02:00 +5°C° 0 mm 2 mps 708 mmHg 67%
    03:00 +5°C° 0 mm 2 mps 708 mmHg 67%
    04:00 +5°C° 0 mm 2 mps 708 mmHg 67%
    05:00 +5°C° 0 mm 2 mps 708 mmHg 67%
    06:00 +5°C° 0 mm 2 mps 708 mmHg 67%
    07:00 +7°C° 0 mm 2 mps 708 mmHg 64%
    08:00 +8°C° 0 mm 2 mps 708 mmHg 60%
    09:00 +10°C° 0 mm 2 mps 708 mmHg 57%
    10:00 +13°C° 0 mm 2 mps 708 mmHg 54%
    11:00 +13°C° 0 mm 3 mps 708 mmHg 52%
    12:00 +14°C° 0 mm 3 mps 708 mmHg 50%
    13:00 +14°C° 0 mm 3 mps 708 mmHg 49%
    14:00 +16°C° 0 mm 3 mps 708 mmHg 49%
    15:00 +16°C° 0 mm 2 mps 707 mmHg 48%
    16:00 +14°C° 0 mm 2 mps 707 mmHg 51%
    17:00 +12°C° 0 mm 2 mps 707 mmHg 54%
    18:00 +10°C° 0 mm 2 mps 707 mmHg 57%
    19:00 +9°C° 0 mm 2 mps 707 mmHg 56%
    20:00 +9°C° 0 mm 2 mps 708 mmHg 54%
    21:00 +9°C° 0 mm 2 mps 708 mmHg 53%
    22:00 +9°C° 0 mm 2 mps 707 mmHg 52%
    23:00 +8°C° 0 mm 2 mps 707 mmHg 51%

    29 October, Monday

    Time Temperature Precipitation Wind Pressure Humidity
    00:00 +8°C° 0 mm 2 mps 707 mmHg 51%
    01:00 +8°C° 0 mm 2 mps 707 mmHg 50%
    02:00 +8°C° 0 mm 2 mps 707 mmHg 50%
    03:00 +8°C° 0 mm 2 mps 707 mmHg 49%
    04:00 +8°C° 0 mm 2 mps 707 mmHg 48%
    05:00 +8°C° 0 mm 2 mps 707 mmHg 47%
    06:00 +8°C° 0 mm 2 mps 706 mmHg 46%
    07:00 +10°C° 0 mm 2 mps 707 mmHg 43%
    08:00 +13°C° 0 mm 2 mps 707 mmHg 41%
    09:00 +15°C° 0 mm 2 mps 707 mmHg 39%
    10:00 +17°C° 0 mm 2 mps 707 mmHg 38%
    11:00 +18°C° 0 mm 2 mps 707 mmHg 37%
    12:00 +20°C° 0 mm 3 mps 707 mmHg 36%
    13:00 +20°C° 0 mm 3 mps 707 mmHg 36%
    14:00 +20°C° 0 mm 3 mps 707 mmHg 35%
    15:00 +20°C° 0 mm 3 mps 706 mmHg 35%
    16:00 +18°C° 0 mm 2 mps 706 mmHg 39%
    17:00 +16°C° 0 mm 2 mps 706 mmHg 42%
    18:00 +13°C° 0 mm 2 mps 706 mmHg 45%
    19:00 +13°C° 0 mm 2 mps 706 mmHg 44%
    20:00 +13°C° 0 mm 2 mps 706 mmHg 43%
    21:00 +12°C° 0 mm 2 mps 706 mmHg 42%
    22:00 +12°C° 0 mm 2 mps 706 mmHg 42%
    23:00 +12°C° 0 mm 2 mps 706 mmHg 43%
    Show more